Location: Larkspur
(54.4391°N, 113.7691°W)
Time: 14:04:41
(UTC+00:00)

Oscar 19 - Pass Details

Date: 01 December 2023
Orbit: 771 x 789 km, 98.9° (Epoch: 01 March)

Event Time Altitude Azimuth Distance (km) Brightness Sun altitude
Rises 00:26:08 0° 204° (SSW) 3,237 14.7 -9.6°
Reaches altitude 10° 00:28:57 10° 219° (SW) 2,315 14.2 -10.0°
Maximum altitude 00:32:51 22° 270° (W) 1,649 13.3 -10.5°
Drops below altitude 10° 00:36:47 10° 320° (NW) 2,330 13.3 -11.0°
Sets 00:39:38 0° 336° (NNW) 3,264 13.9 -11.4°
